Date,TemperatureHighF,TemperatureAvgF,TemperatureLowF,DewpointHighF,DewpointAvgF,DewpointLowF,HumidityHigh,HumidityAvg,HumidityLow,PressureMaxIn,PressureMinIn,WindSpeedMaxMPH,WindSpeedAvgMPH,GustSpeedMaxMPH,PrecipitationSumIn
2013-1-1,36.0,30.6,27.0,36.0,30.6,27.0,100,100,98,30.53,30.39,1,0,2,0.00
2013-1-2,40.0,32.7,28.0,35.0,30.0,27.0,100,91,64,30.40,30.23,1,0,4,0.00
2013-1-3,41.0,33.5,27.0,36.0,27.1,23.0,99,79,51,30.23,30.13,2,0,7,0.05
2013-1-4,47.0,41.4,36.0,46.0,41.2,36.0,100,99,96,30.35,30.19,2,0,5,0.09
2013-1-5,41.0,39.2,38.0,40.0,38.2,36.0,100,97,87,30.23,30.13,1,0,6,0.19
2013-1-6,43.0,39.3,37.0,41.0,38.9,37.0,100,98,93,30.21,30.02,2,0,7,0.54
2013-1-7,47.0,42.9,39.0,47.0,42.9,39.0,100,100,99,30.18,29.86,3,0,12,1.66
2013-1-8,49.0,43.6,39.0,49.0,43.6,39.0,100,100,99,30.19,29.76,4,1,18,0.86
2013-1-9,48.0,37.6,33.0,48.0,37.5,33.0,100,99,98,29.97,29.69,3,0,11,1.71
2013-1-10,34.0,32.3,28.0,34.0,32.3,28.0,100,100,100,30.14,29.96,0,0,3,0.12
2013-1-11,31.0,27.7,24.0,31.0,27.7,24.0,100,100,98,30.36,30.13,0,0,0,0.01
2013-1-12,30.0,25.3,22.0,30.0,25.2,22.0,100,99,98,30.48,30.35,0,0,0,0.00
2013-1-13,32.0,25.9,20.0,31.0,25.8,20.0,100,99,95,30.53,30.47,0,0,0,0.00
2013-1-14,33.0,31.2,29.0,33.0,31.2,29.0,100,99,98,30.60,30.51,0,0,1,0.01
2013-1-15,36.0,32.2,27.0,36.0,32.2,27.0,100,100,98,30.73,30.60,0,0,0,0.01
2013-1-16,36.0,29.9,24.0,36.0,29.9,24.0,100,100,98,30.71,30.55,0,0,0,0.01
2013-1-17,38.0,31.8,27.0,38.0,31.8,27.0,100,100,100,30.56,29.61,0,0,1,0.01
2013-1-18,36.0,30.7,26.0,36.0,30.7,26.0,100,100,99,30.34,30.25,1,0,2,0.00
2013-1-19,32.0,27.1,22.0,32.0,27.1,22.0,100,99,98,30.38,30.33,0,0,1,0.00
2013-1-20,36.0,28.1,22.0,36.0,28.1,22.0,100,100,98,30.39,30.26,0,0,1,0.00
2013-1-21,34.0,26.8,22.0,34.0,26.8,22.0,100,99,98,30.26,30.12,1,0,2,0.00
2013-1-22,39.0,31.9,23.0,38.0,31.8,23.0,100,99,94,30.15,29.90,2,0,3,0.07
2013-1-23,43.0,38.5,36.0,40.0,36.2,31.0,100,92,66,30.14,29.85,1,0,7,0.68
2013-1-24,42.0,38.5,36.0,41.0,38.1,36.0,100,99,91,30.22,30.06,1,0,5,0.46
2013-1-25,47.0,42.4,37.0,45.0,42.1,37.0,100,99,93,30.06,29.93,1,0,5,0.24
2013-1-26,38.0,36.7,35.0,38.0,36.7,35.0,100,100,98,30.02,29.88,1,0,4,1.16
2013-1-27,39.0,36.5,34.0,39.0,36.5,33.0,100,100,99,30.05,29.98,2,0,5,0.82
2013-1-28,36.0,33.8,33.0,36.0,33.8,33.0,100,100,100,30.08,29.99,0,0,4,2.08
2013-1-29,42.0,38.5,35.0,42.0,38.5,35.0,100,100,100,30.34,30.08,0,0,3,2.20
2013-1-30,47.0,43.1,40.0,47.0,43.1,40.0,100,100,100,30.38,30.33,0,0,2,1.00
2013-1-31,45.0,43.8,43.0,45.0,43.8,43.0,100,100,98,30.37,30.31,0,0,3,0.35
2013-2-1,48.0,42.1,35.0,47.0,41.8,35.0,100,99,94,30.41,30.33,0,0,2,0.10
2013-2-2,45.0,36.6,31.0,44.0,36.5,31.0,100,100,94,30.39,30.26,1,0,3,0.01
2013-2-3,45.0,40.1,32.0,45.0,40.1,32.0,100,100,99,30.31,30.22,0,0,4,0.30
2013-2-4,47.0,42.9,41.0,46.0,42.6,41.0,100,99,90,30.22,29.89,2,0,5,0.31
2013-2-5,46.0,43.1,42.0,45.0,42.5,41.0,100,98,95,29.91,29.85,2,0,8,0.25
2013-2-6,46.0,42.6,40.0,42.0,40.8,39.0,98,93,81,30.05,29.80,2,0,10,0.05
2013-2-7,44.0,39.2,31.0,41.0,37.7,31.0,100,95,80,30.18,29.81,3,0,11,0.28
2013-2-8,40.0,34.4,28.0,39.0,34.0,28.0,100,98,89,30.29,30.18,0,0,2,0.03
2013-2-9,41.0,37.6,35.0,40.0,37.4,35.0,100,99,97,30.34,30.26,0,0,3,0.06
2013-2-10,42.0,36.8,29.0,41.0,36.2,29.0,100,98,89,30.37,30.32,0,0,2,0.01
2013-2-11,41.0,38.5,35.0,41.0,38.4,35.0,100,100,98,30.36,30.32,1,0,4,0.07
2013-2-12,46.0,42.8,39.0,45.0,42.6,39.0,100,99,97,30.40,30.28,2,0,6,0.06
2013-2-13,45.0,42.4,40.0,45.0,42.0,39.0,100,99,92,30.50,30.30,1,0,7,0.20
2013-2-14,47.0,42.6,39.0,45.0,42.1,39.0,100,98,89,30.56,30.49,1,0,5,0.12
2013-2-15,52.0,41.8,33.0,47.0,40.6,33.0,100,96,78,30.55,30.18,1,0,3,0.01
2013-2-16,45.0,41.5,38.0,45.0,41.5,38.0,100,99,95,30.19,30.13,1,0,4,1.07
2013-2-17,41.0,37.7,34.0,40.0,37.4,34.0,100,99,94,30.24,30.13,1,0,4,0.43
2013-2-18,44.0,36.5,31.0,39.0,35.3,31.0,100,96,82,30.12,29.77,1,0,4,0.01
2013-2-19,48.0,38.1,32.0,39.0,35.3,32.0,100,90,67,30.00,29.75,2,0,10,0.01
2013-2-20,43.0,37.0,33.0,39.0,36.3,33.0,100,97,84,30.04,30.00,1,0,7,0.04
2013-2-21,39.0,37.7,35.0,39.0,37.7,35.0,100,99,98,30.07,30.00,1,0,7,0.29
2013-2-22,42.0,38.0,33.0,41.0,37.9,33.0,100,99,93,30.05,29.68,3,1,13,0.49
2013-2-23,44.0,36.5,33.0,42.0,36.2,33.0,100,99,92,30.37,29.89,1,0,4,1.00
2013-2-24,44.0,39.3,35.0,40.0,37.3,35.0,100,93,83,30.38,29.97,2,0,9,0.07
2013-2-25,46.0,40.2,37.0,43.0,38.1,34.0,100,92,67,30.29,29.90,2,0,11,0.24
2013-2-26,45.0,39.1,33.0,38.0,35.2,33.0,100,86,65,30.35,30.20,2,0,11,0.01
2013-2-27,49.0,41.3,38.0,42.0,38.7,36.0,99,91,61,30.30,30.21,2,0,9,0.37
2013-2-28,50.0,43.5,38.0,50.0,43.5,38.0,100,99,98,30.32,30.19,3,0,11,0.76
2013-3-1,55.0,52.0,50.0,51.0,49.9,48.0,100,93,85,30.36,30.29,4,1,15,0.05
2013-3-2,54.0,47.2,37.0,49.0,44.2,35.0,99,90,79,30.29,30.07,3,0,9,0.49
2013-3-3,42.0,36.6,31.0,40.0,36.0,31.0,100,98,84,30.31,30.19,1,0,6,0.22
2013-3-4,51.0,38.1,28.0,39.0,30.8,27.0,100,78,44,30.30,29.95,2,0,7,0.01
2013-3-5,53.0,43.9,37.0,40.0,33.4,27.0,89,68,43,29.95,29.74,1,0,8,0.01
2013-3-6,42.0,38.8,36.0,41.0,37.5,34.0,99,96,90,29.90,29.58,0,0,3,0.46
2013-3-7,47.0,39.1,34.0,45.0,38.7,33.0,100,98,93,30.10,29.90,1,0,4,0.54
2013-3-8,50.0,38.3,30.0,44.0,36.6,30.0,100,94,74,30.24,30.08,1,0,6,0.01
2013-3-9,52.0,39.6,31.0,43.0,36.6,31.0,100,90,63,30.50,30.24,2,0,7,0.01
2013-3-10,46.0,40.9,36.0,43.0,38.6,35.0,99,92,76,30.50,30.43,1,0,5,0.01
2013-3-11,52.0,43.3,34.0,44.0,39.6,34.0,100,88,60,30.45,30.17,2,0,7,0.02
2013-3-12,50.0,48.3,46.0,49.0,47.3,43.0,100,97,89,30.17,30.07,2,0,11,0.79
2013-3-13,52.0,49.7,48.0,50.0,49.2,48.0,100,98,94,30.22,30.10,2,0,7,0.80
2013-3-14,52.0,48.8,46.0,51.0,48.3,45.0,100,98,93,30.16,30.04,1,0,7,0.17
2013-3-15,57.0,49.9,46.0,52.0,48.4,45.0,100,95,76,30.22,30.14,2,0,6,0.04
2013-3-16,49.0,42.6,34.0,47.0,41.5,34.0,99,96,83,30.14,29.90,2,0,9,0.49
2013-3-17,45.0,37.9,33.0,40.0,36.7,33.0,100,95,75,30.19,29.95,1,0,6,0.31
2013-3-18,50.0,39.4,33.0,41.0,35.8,33.0,100,88,55,30.25,30.11,2,0,8,0.32
2013-3-19,53.0,40.6,31.0,41.0,34.7,31.0,99,83,42,30.25,29.62,2,0,12,0.12
2013-3-20,50.0,43.2,33.0,47.0,41.4,32.0,99,94,74,30.01,29.40,4,1,19,1.42
2013-3-21,42.0,35.8,33.0,39.0,35.0,33.0,100,97,86,30.20,30.01,1,0,5,0.83
2013-3-22,43.0,34.9,29.0,37.0,33.4,29.0,99,94,74,30.37,30.20,1,0,5,0.38
2013-3-23,46.0,35.9,29.0,36.0,30.7,28.0,100,84,51,30.40,30.31,1,0,4,0.01
2013-3-24,54.0,38.8,29.0,37.0,31.5,27.0,99,79,37,30.31,30.14,2,0,8,0.01
2013-3-25,60.0,44.3,31.0,38.0,32.7,28.0,97,68,32,30.15,29.95,2,0,4,0.00
2013-3-26,60.0,46.9,36.0,42.0,37.8,34.0,96,73,44,30.02,29.97,2,0,6,0.00
2013-3-27,56.0,47.4,40.0,46.0,42.3,39.0,97,83,63,30.00,29.94,1,0,4,0.00
2013-3-28,62.0,49.5,40.0,49.0,44.2,39.0,98,84,57,30.16,30.00,2,0,6,0.09
2013-3-29,63.0,49.4,39.0,50.0,44.2,39.0,100,84,51,30.26,30.16,2,0,8,0.09
2013-3-30,67.0,50.7,37.0,50.0,42.4,-99.9,100,79,45,30.27,30.10,2,0,5,0.00
2013-3-31,71.0,53.4,39.0,48.0,44.2,39.0,99,75,38,30.10,29.93,2,0,5,0.00
2013-4-1,61.0,50.9,40.0,51.0,46.2,39.0,99,85,67,30.16,29.98,3,0,11,0.00
2013-4-2,52.0,49.2,47.0,49.0,47.2,45.0,98,93,88,30.22,30.16,1,0,4,0.03
2013-4-3,63.0,51.8,45.0,49.0,46.5,44.0,98,84,56,30.19,29.97,1,0,5,0.01
2013-4-4,55.0,50.9,47.0,54.0,48.7,42.0,98,92,80,29.97,29.66,1,0,6,0.34
2013-4-5,55.0,50.1,46.0,51.0,48.5,45.0,99,95,80,29.88,29.74,3,1,13,0.47
2013-4-6,50.0,46.1,43.0,47.0,44.1,40.0,98,93,85,29.93,29.71,3,1,12,0.29
2013-4-7,43.0,40.7,38.0,42.0,39.7,37.0,99,97,93,29.88,29.51,1,0,8,1.50
2013-4-8,51.0,43.7,40.0,48.0,42.7,40.0,99,96,81,30.28,29.88,1,0,5,0.39
2013-4-9,53.0,47.3,42.0,47.0,43.7,41.0,99,88,73,30.35,30.21,1,0,5,0.01
2013-4-10,52.0,48.3,44.0,49.0,45.9,42.0,98,92,79,30.26,29.92,3,1,10,0.27
2013-4-11,51.0,44.6,37.0,44.0,41.4,36.0,99,89,68,30.31,30.21,1,0,5,0.32
2013-4-12,47.0,39.6,35.0,42.0,38.1,34.0,99,95,77,30.21,29.69,3,0,8,0.51
2013-4-13,44.0,38.3,35.0,43.0,37.6,34.0,99,98,96,30.00,29.73,2,0,6,0.55
2013-4-14,51.0,41.7,36.0,43.0,39.0,36.0,100,91,66,30.02,29.93,1,0,7,0.25
2013-4-15,53.0,42.5,35.0,44.0,39.6,35.0,99,91,65,30.18,29.95,2,0,5,0.07
2013-4-16,54.0,41.9,31.0,47.0,38.2,31.0,100,88,55,30.41,30.18,2,0,5,0.07
2013-4-17,59.0,45.9,35.0,44.0,38.4,35.0,100,78,43,30.46,30.41,3,0,9,0.05
2013-4-18,48.0,44.4,41.0,46.0,42.3,38.0,99,93,80,30.46,30.23,1,0,6,0.38
2013-4-19,53.0,48.3,46.0,52.0,47.9,45.0,99,98,95,30.24,30.08,1,0,7,1.37
2013-4-20,51.0,46.5,44.0,50.0,46.1,44.0,99,98,93,30.29,30.20,1,0,4,0.80
2013-4-21,50.0,43.6,38.0,48.0,42.8,37.0,100,97,87,30.37,30.24,1,0,6,0.80
2013-4-22,60.0,45.3,32.0,45.0,37.1,27.0,100,77,41,30.53,30.37,2,0,9,0.01
2013-4-23,62.0,47.1,34.0,43.0,37.7,33.0,99,74,35,30.45,30.26,2,0,7,0.01
2013-4-24,68.0,51.8,36.0,44.0,38.6,32.0,99,67,28,30.33,30.09,3,0,9,0.00
2013-4-25,70.0,54.7,39.0,48.0,41.3,36.0,94,65,34,30.16,30.06,2,0,7,0.00
2013-4-26,68.0,55.2,43.0,53.0,46.4,39.0,97,74,48,30.26,30.16,2,0,8,0.00
2013-4-27,55.0,51.0,48.0,48.0,44.1,40.0,98,78,58,30.23,30.16,3,0,9,0.33
2013-4-28,55.0,48.0,44.0,49.0,45.7,43.0,99,92,73,30.23,29.96,2,0,5,0.51
2013-4-29,54.0,45.9,39.0,44.0,37.7,32.0,99,76,44,30.16,29.93,2,1,15,0.23
2013-4-30,53.0,42.3,34.0,44.0,35.5,28.0,97,78,48,30.45,30.16,2,0,7,0.14
2013-5-1,63.0,47.1,30.0,42.0,36.3,29.0,99,70,38,30.58,30.45,2,0,7,0.04
2013-5-2,70.0,53.0,39.0,48.0,41.4,37.0,96,68,36,30.56,30.38,2,0,9,0.00
2013-5-3,69.0,54.0,40.0,54.0,45.4,39.0,98,75,51,30.41,30.25,2,0,8,0.00
2013-5-4,78.0,59.8,44.0,53.0,46.2,42.0,99,67,29,30.26,30.03,2,0,11,0.00
2013-5-5,81.0,64.2,46.0,55.0,48.3,43.0,90,61,30,30.03,29.81,2,0,9,0.00
2013-5-6,85.0,66.8,49.0,56.0,48.2,41.0,84,55,28,29.88,29.79,2,0,6,0.00
2013-5-7,71.0,59.2,51.0,56.0,51.3,46.0,93,77,55,30.01,29.84,2,0,5,0.00
2013-5-8,62.0,54.1,49.0,55.0,51.4,48.0,98,91,76,30.17,30.01,1,0,4,0.00
2013-5-9,72.0,56.6,46.0,60.0,52.0,46.0,100,86,62,30.24,30.14,2,0,5,0.01
2013-5-10,77.0,61.4,48.0,60.0,51.5,-99.9,100,77,48,30.22,30.14,2,0,7,0.01
2013-5-11,81.0,64.6,54.0,59.0,53.3,-99.9,96,71,40,30.20,30.02,2,0,7,0.00
2013-5-12,68.0,61.2,56.0,61.0,57.1,53.0,98,87,68,30.11,30.03,1,0,7,0.26
2013-5-13,60.0,54.3,45.0,58.0,52.4,44.0,97,94,78,30.21,29.95,3,0,10,0.24
2013-5-14,62.0,51.8,44.0,46.0,43.2,38.0,96,75,42,30.24,30.14,3,0,7,0.01
2013-5-15,67.0,52.2,42.0,50.0,45.5,41.0,98,80,48,30.14,30.03,2,0,6,0.10
2013-5-16,69.0,54.0,49.0,56.0,37.0,-99.9,99,85,59,30.04,29.89,2,0,6,0.17
2013-5-17,56.0,53.1,50.0,54.0,48.3,-99.9,98,93,85,30.07,29.96,1,0,6,0.18
2013-5-18,58.0,53.2,49.0,52.0,48.9,47.0,96,86,68,30.29,30.07,2,0,7,0.01
2013-5-19,60.0,52.8,48.0,54.0,50.1,47.0,98,91,72,30.42,30.29,1,0,4,0.07
2013-5-20,67.0,53.9,43.0,56.0,48.9,43.0,99,85,53,30.37,29.92,3,0,6,0.01
2013-5-21,52.0,47.6,45.0,50.0,46.1,44.0,98,95,88,29.93,29.80,1,0,5,1.07
2013-5-22,50.0,45.5,43.0,49.0,44.4,42.0,99,97,89,29.96,29.86,1,0,4,0.66
2013-5-23,55.0,46.7,40.0,50.0,44.9,40.0,100,94,76,30.03,29.94,2,0,7,0.06
2013-5-24,59.0,50.2,42.0,50.0,46.2,41.0,100,87,65,30.06,29.99,1,0,5,0.01
2013-5-25,61.0,52.5,47.0,49.0,47.3,45.0,99,84,59,30.06,30.00,2,0,7,0.02
2013-5-26,60.0,53.1,47.0,55.0,49.9,45.0,98,90,73,30.01,29.96,2,0,6,0.04
2013-5-27,58.0,53.6,48.0,56.0,52.1,47.0,99,95,88,29.99,29.75,1,0,5,0.25
2013-5-28,58.0,53.6,50.0,56.0,51.5,49.0,99,93,82,29.91,29.79,2,0,9,0.20
2013-5-29,55.0,50.4,48.0,52.0,49.1,47.0,99,96,88,29.98,29.69,1,0,3,0.49
2013-5-30,60.0,51.6,46.0,52.0,48.5,45.0,99,90,65,30.26,29.98,3,0,9,0.33
2013-5-31,66.0,54.5,46.0,52.0,48.0,45.0,98,80,49,30.36,30.25,2,0,7,0.01
2013-6-1,69.0,57.5,45.0,54.0,49.8,44.0,98,78,51,30.27,30.08,3,0,8,0.00
2013-6-2,68.0,56.5,50.0,54.0,50.8,48.0,99,83,55,30.11,30.07,2,0,7,0.04
2013-6-3,70.0,58.1,46.0,58.0,51.8,45.0,99,81,59,30.14,30.09,2,0,6,0.01
2013-6-4,78.0,62.5,47.0,60.0,53.3,47.0,100,75,44,30.15,30.06,2,0,6,0.00
2013-6-5,76.0,62.1,50.0,62.0,54.6,48.0,98,78,55,30.13,30.07,2,0,8,0.00
2013-6-6,77.0,62.6,49.0,63.0,53.0,40.0,99,74,46,30.08,30.04,3,0,6,0.00
2013-6-7,65.0,57.9,51.0,54.0,47.9,41.0,89,70,51,30.18,30.05,2,0,9,0.00
2013-6-8,65.0,56.3,48.0,54.0,49.3,46.0,92,78,61,30.21,30.14,2,0,8,0.00
2013-6-9,66.0,55.7,48.0,51.0,47.7,44.0,95,76,49,30.14,30.06,3,0,9,0.00
2013-6-10,69.0,55.7,44.0,54.0,47.5,43.0,98,76,47,30.07,29.91,2,0,7,0.00
2013-6-11,59.0,53.0,47.0,53.0,48.6,45.0,98,86,62,30.12,29.95,2,0,10,0.07
2013-6-12,65.0,54.2,46.0,52.0,48.5,45.0,99,83,52,30.16,30.12,2,0,9,0.05
2013-6-13,63.0,54.9,50.0,56.0,51.5,49.0,99,89,70,30.24,30.16,1,0,5,0.09
2013-6-14,65.0,55.8,50.0,54.0,49.7,48.0,96,81,58,30.26,30.08,2,0,6,0.01
2013-6-15,76.0,60.5,45.0,60.0,53.0,44.0,99,79,51,30.09,29.94,2,0,10,0.00
2013-6-16,72.0,61.4,51.0,62.0,55.8,50.0,99,84,59,30.11,30.01,2,0,7,0.03
2013-6-17,76.0,61.8,50.0,59.0,53.4,49.0,99,77,41,30.12,29.92,2,0,8,0.11
2013-6-18,70.0,59.9,53.0,56.0,52.5,47.0,99,79,47,30.01,29.90,2,0,10,0.11
2013-6-19,64.0,55.9,53.0,57.0,52.9,50.0,96,90,75,30.03,29.94,1,0,3,0.23
2013-6-20,55.0,52.3,51.0,54.0,51.3,50.0,99,97,92,30.11,29.98,0,0,2,1.49
2013-6-21,65.0,63.5,60.0,55.0,54.2,52.0,83,72,63,30.19,30.16,1,0,6,0.34
2013-6-22,76.0,69.0,49.0,58.0,54.9,49.0,100,62,45,30.11,29.89,2,1,6,0.00
2013-6-23,68.0,62.5,55.0,63.0,59.1,53.0,98,89,74,29.89,29.62,1,0,5,0.03
2013-6-24,64.0,59.1,55.0,60.0,57.2,54.0,99,94,76,29.73,29.61,2,0,6,0.53
2013-6-25,69.0,59.1,53.0,62.0,56.2,52.0,99,91,65,29.90,29.70,2,0,11,0.63
2013-6-26,69.0,60.9,53.0,63.0,57.6,53.0,99,90,71,30.12,29.88,2,0,6,0.42
2013-6-27,69.0,61.9,56.0,65.0,59.8,55.0,99,93,78,30.24,30.08,1,0,5,0.08
2013-6-28,85.0,70.7,58.0,70.0,63.6,58.0,100,80,48,30.23,30.09,2,0,5,0.01
2013-6-29,82.0,70.9,61.0,70.0,64.1,60.0,98,81,58,30.14,30.03,2,0,5,0.00
2013-6-30,90.0,74.5,60.0,73.0,65.9,60.0,100,77,48,30.05,29.90,2,0,6,0.00
2013-7-1,84.0,71.9,62.0,69.0,62.3,57.0,91,73,55,30.04,29.95,3,0,7,0.00
2013-7-2,78.0,66.4,56.0,64.0,57.3,51.0,93,74,52,30.14,30.05,3,1,9,0.00
2013-7-3,75.0,63.0,52.0,59.0,52.6,46.0,89,70,49,30.18,30.09,2,0,7,0.00
2013-7-4,69.0,60.0,51.0,57.0,52.9,48.0,95,78,60,30.15,30.06,3,0,6,0.00
2013-7-5,71.0,59.9,51.0,58.0,54.2,49.0,95,83,61,30.06,29.98,2,0,5,0.00
2013-7-6,77.0,63.0,53.0,62.0,56.4,52.0,99,81,55,30.00,29.90,2,0,8,0.00
2013-7-7,76.0,65.8,55.0,62.0,57.0,52.0,95,75,50,29.97,29.91,2,0,7,0.00
2013-7-8,78.0,62.1,53.0,63.0,55.9,-99.9,98,84,55,30.12,29.97,2,0,6,0.00
2013-7-9,81.0,66.1,55.0,66.0,58.2,50.0,100,78,53,30.14,30.05,2,0,7,0.00
2013-7-10,73.0,61.2,53.0,62.0,52.3,-99.9,89,76,60,30.08,30.00,3,0,9,0.00
2013-7-11,68.0,57.4,49.0,55.0,50.1,45.0,92,78,54,30.11,30.03,3,0,8,0.00
2013-7-12,65.0,54.7,47.0,57.0,49.8,45.0,96,84,65,30.14,30.03,2,0,5,0.00
2013-7-13,74.0,60.7,46.0,57.0,51.2,45.0,99,74,47,30.22,30.13,2,1,10,0.00
2013-7-14,78.0,63.1,49.0,59.0,51.2,43.0,99,69,38,30.16,30.03,2,0,7,0.00
2013-7-15,78.0,62.0,47.0,62.0,51.5,46.0,98,72,43,30.08,29.93,3,1,10,0.00
2013-7-16,86.0,67.7,53.0,64.0,56.8,50.0,96,71,41,29.95,29.83,3,0,7,0.00
2013-7-17,68.0,63.8,59.0,61.0,58.8,55.0,96,84,71,30.22,29.91,2,0,8,0.04
2013-7-18,75.0,62.2,54.0,63.0,56.8,52.0,94,84,61,30.26,30.15,3,0,7,0.01
2013-7-19,77.0,61.8,53.0,64.0,57.2,52.0,99,87,62,30.20,30.07,3,0,8,0.00
2013-7-20,74.0,59.0,52.0,63.0,55.0,-99.9,99,90,62,30.11,29.99,3,0,6,0.00
2013-7-21,75.0,60.9,52.0,64.0,57.5,51.0,99,90,65,30.01,29.94,2,0,5,0.00
2013-7-22,77.0,61.8,54.0,65.0,58.2,53.0,99,89,64,30.09,29.96,2,0,4,0.01
2013-7-23,83.0,65.0,54.0,64.0,57.8,54.0,99,80,45,30.09,30.00,3,1,7,0.01
2013-7-24,81.0,67.1,54.0,61.0,56.2,50.0,97,70,49,30.08,30.03,2,0,7,0.00
2013-7-25,80.0,64.7,52.0,62.0,53.6,49.0,94,70,42,30.13,30.07,2,0,7,0.00
2013-7-26,80.0,63.0,51.0,60.0,51.7,44.0,96,70,40,30.17,30.11,2,0,7,0.00
2013-7-27,75.0,61.6,49.0,59.0,52.2,47.0,96,73,47,30.18,30.03,2,0,8,0.00
2013-7-28,71.0,60.3,51.0,58.0,54.1,50.0,98,82,60,30.04,29.98,2,0,8,0.00
2013-7-29,73.0,61.6,56.0,59.0,55.4,53.0,93,81,61,30.03,29.98,2,0,5,0.00
2013-7-30,76.0,63.0,54.0,62.0,57.4,53.0,99,84,59,30.16,30.03,2,0,6,0.00
2013-7-31,72.0,60.5,53.0,63.0,57.9,52.0,99,92,71,30.14,30.01,3,0,5,0.02
2013-8-1,62.0,58.8,56.0,60.0,57.2,55.0,99,95,87,30.10,30.05,1,0,4,0.02
2013-8-2,59.0,57.4,56.0,58.0,56.2,55.0,99,97,92,30.16,30.09,1,0,5,0.56
2013-8-3,71.0,62.8,57.0,64.0,59.9,57.0,99,91,74,30.16,30.09,2,0,7,0.01
2013-8-4,78.0,65.7,57.0,67.0,60.8,56.0,98,85,63,30.10,29.98,2,0,6,0.00
2013-8-5,81.0,67.1,57.0,67.0,59.5,54.0,100,79,53,30.04,29.97,2,0,8,0.00
2013-8-6,81.0,66.1,54.0,63.0,56.8,53.0,100,75,45,30.03,29.95,2,0,6,0.00
2013-8-7,82.0,67.2,54.0,62.0,56.3,52.0,96,71,40,30.04,29.98,2,0,6,0.00
2013-8-8,79.0,66.4,56.0,65.0,58.0,51.0,96,76,56,30.06,29.98,2,0,8,0.00
2013-8-9,80.0,67.8,57.0,66.0,58.5,51.0,94,73,56,30.00,29.87,2,0,5,0.00
2013-8-10,79.0,67.8,61.0,67.0,62.7,59.0,99,85,62,30.05,29.89,2,0,10,0.10
2013-8-11,71.0,62.9,56.0,64.0,59.6,55.0,98,89,72,30.09,30.01,2,0,5,0.06
2013-10-2,51.0,48.2,46.0,50.0,47.6,45.0,100,98,95,30.15,30.05,1,0,3,0.23
2013-10-3,55.0,49.1,45.0,51.0,47.7,45.0,100,95,78,30.43,30.15,0,0,2,0.01
2013-10-4,63.0,50.3,39.0,51.0,45.8,39.0,100,86,56,30.45,30.34,1,0,4,0.00
2013-10-5,67.0,52.5,43.0,53.0,45.3,-99.9,99,82,52,30.35,30.13,1,0,4,0.00
2013-10-6,74.0,57.0,46.0,54.0,48.2,41.0,100,76,30,30.12,29.88,2,0,11,0.01
2013-10-7,55.0,50.5,48.0,51.0,49.5,47.0,100,97,83,30.00,29.88,2,0,9,1.01
2013-10-8,54.0,47.8,41.0,51.0,47.0,40.0,100,97,84,30.06,29.94,2,0,6,0.68
2013-10-9,55.0,44.7,37.0,49.0,42.8,37.0,100,94,74,30.11,29.94,2,0,6,0.01
2013-10-10,56.0,48.6,44.0,51.0,46.8,43.0,100,94,77,30.05,29.92,1,0,7,0.00
2013-10-18,58.0,47.3,40.0,52.0,46.2,40.0,100,96,78,30.22,30.13,1,0,3,0.01
2013-10-19,49.0,42.9,38.0,48.0,41.0,-99.9,100,98,96,30.17,30.12,1,0,3,0.01
2013-10-20,47.0,44.3,42.0,47.0,44.3,42.0,100,100,100,30.19,30.13,0,0,2,0.02
2013-10-21,48.0,44.7,41.0,48.0,44.7,41.0,100,100,100,30.15,30.09,1,0,2,0.02
2013-10-22,51.0,46.1,41.0,51.0,46.1,41.0,100,100,99,30.10,30.01,1,0,3,0.01
2013-10-23,61.0,47.3,38.0,57.0,46.6,38.0,100,98,85,30.03,29.96,1,0,2,0.01
2013-10-24,55.0,46.5,40.0,51.0,45.9,40.0,100,98,85,30.07,30.00,2,0,3,0.01
2013-10-25,48.0,46.5,45.0,48.0,46.5,45.0,100,100,98,30.29,30.17,0,0,1,0.03
2013-10-26,49.0,45.7,44.0,47.0,43.7,-99.9,100,97,91,30.32,30.17,1,0,4,0.01
2013-10-27,52.0,46.5,42.0,51.0,46.4,42.0,100,99,96,30.17,29.88,1,0,8,0.30
2013-10-28,56.0,44.8,39.0,44.0,38.9,-99.9,100,85,51,29.93,29.86,2,0,8,0.01
2013-10-29,53.0,41.2,33.0,42.0,37.7,33.0,100,88,61,30.01,29.93,1,0,3,0.01
2013-10-30,54.0,44.0,35.0,46.0,41.1,35.0,100,91,68,30.12,30.01,2,0,7,0.04
2013-11-4,43.0,36.5,30.0,41.0,35.7,30.0,100,97,84,30.16,30.05,1,0,2,0.08
2013-11-5,48.0,43.9,39.0,48.0,43.9,39.0,100,100,99,30.23,29.99,0,0,3,0.26
2013-11-6,50.0,43.9,39.0,49.0,43.7,39.0,100,99,93,30.29,30.02,1,0,4,0.05
2013-11-7,48.0,46.5,45.0,48.0,46.4,44.0,100,99,98,30.00,29.68,3,1,11,1.15
2013-11-8,50.0,45.4,42.0,49.0,44.9,41.0,100,98,89,30.14,29.95,2,0,5,0.27
2013-11-9,50.0,42.4,36.0,48.0,39.9,-99.9,100,95,83,30.14,30.04,1,0,3,0.05
2013-11-10,47.0,44.6,43.0,47.0,44.6,43.0,100,100,99,30.13,30.07,0,0,2,0.20
2013-11-11,51.0,49.0,46.0,47.0,45.7,44.0,98,89,77,30.01,29.98,1,0,4,0.00
2013-11-12,55.0,51.6,46.0,54.0,51.0,45.0,100,97,80,30.35,30.01,2,0,7,0.01
2013-11-13,53.0,49.9,47.0,51.0,48.7,46.0,100,96,88,30.41,30.30,2,0,4,0.01
2013-11-14,48.0,44.0,39.0,48.0,44.0,39.0,100,100,99,30.29,30.03,1,0,2,0.16
2013-11-15,44.0,42.1,41.0,44.0,42.1,41.0,100,100,99,30.03,29.32,2,1,8,0.97
2013-12-4,30.0,26.2,23.0,30.0,25.9,23.0,100,98,91,30.30,30.24,0,0,2,0.01
2013-12-5,30.0,24.8,21.0,27.0,23.6,19.0,99,95,81,30.27,30.15,1,0,3,0.00
2013-12-6,27.0,21.0,16.0,19.0,15.1,12.0,94,79,56,30.19,30.10,1,0,4,0.00
2013-12-7,23.0,16.5,13.0,14.0,9.7,-99.9,93,79,56,30.36,30.18,1,0,2,0.00
2013-12-8,26.0,20.4,14.0,18.0,16.4,12.0,95,85,67,30.51,30.36,1,0,2,0.00
2013-12-9,31.0,26.3,18.0,28.0,23.9,17.0,97,90,84,30.53,30.43,0,0,2,0.00
2013-12-10,32.0,30.2,29.0,32.0,29.6,28.0,99,98,97,30.44,30.41,0,0,1,0.00